Showing default

GLOBALSTAR M099, 100327

Orbit data source: Space-Track

GLOBALSTAR M099, 100327 is a payload satellite owned by Globalstar (US) in LEO that was launched on Sun, 16 Aug 2026 UTC launched from the Air Force Eastern Test Range (AFETR). Payload-class satellites include a variety of spacecraft equipped with specific instruments for various scientific and technological missions. These include communications satellites like Starlink; space stations such as the ISS; scientific satellites like the Hubble; Earth observation satellites from companies like Planet Labs, Umbra, and HawkEye 360; GPS; miniature CubeSats for education and research; and military/defense satellites.

Loading next visibility...
Identifier
100327, 2026-185C
Orbit
LEO
Country
Flag of USUS
Related business
Manufacturer
MDARM/RLABLB
Mission
Operational spacecraft
Bus & Motor
C-3, AOCS
Mass
850 kg wet, ~800 kg dry
Launch date (UTC)
2026-08-16 (3 weeks ago)
Launch vehicle
Unknown
Launch site
Air Force Eastern Test Range (AFETR)
Object type
Payload
Rocket body
Debris
Shape & HBR
TRAP CYL + 2 PAN, 7.0 m
Radar Cross Section
Large (>1 m²)

Expand to show TLE details & history
Last TLE update: 16 hours ago

TLE from 16 hours ago
0 GLOBALSTAR M099
1 A0327U 26185C   26251.12165954  .00000237  00000-0  82082-4 0  9999
2 A0327  51.9953 138.8014 0009435 307.3302  52.6795 14.63795991  3382
Epoch: 2026-09-08T02:55Z
TLE epoch observation values (Epoch: 2026-09-08T02:55:11.384Z)
Latitude
0.00004°
Longitude
107.81139°
Altitude
677.661 km
Speed
7.521 km/s
True Right ascension
09h 15m 12s
True Declination
0° 00' 00"
Sunlit
Object was in daylight at epoch
Visualization orbit readout
Latitude
Unknown
Longitude
Unknown
Altitude
Unknown
Speed
Unknown
Apparent Right ascension
Unknown
Apparent Declination
Unknown
Sunlit
N/A
Visualization observer readout
Local Sidereal Time
10:41:00
Azimuth
Unknown
Elevation
Unknown
Doppler factor
Unknown
Orbital elements
Apogee altitude
688.037 km
Perigee altitude
674.716 km
Semi-major axis
7,059.513 km
Eccentricity
0.00094
Inclination
51.9953°
RAAN
138.8014°
Arg. of periapsis
307.3302°
True anomaly
52.76554°
Mean anomaly
52.6795°
Eccentric anomaly
52.72252°
Mean motion
3.65916 °/min
Orbital period
98.38 mins
BSTAR
0.000082082
Loading maneuver chart data...
Computing Atmospheric mass density...
Loading historical data...
Loading historical data...
Loading historical data...
Loading historical data...
Loading historical data...
Loading historical data...
Loading historical data...

Documentation

Showing up to 5 results
|